Wind_Speed
42 41 40 39 38 36 35 33 31 29 28 26 24 24 26 27 26 25 25 25 25 25 25 25 24 22 21 21 22 22 23 23 21 19 18 14 9 4 5 10 13 13 13 14 16 15 15 18 18 18 20 22 25 26 27 27 28 28 26 23 22 22 20 19 19 17 16 15 13 14 11 10 9 9 11 14 15 17 18 18 17 16 14 14 15 16 17 17
42 42 41 40 39 37 35 34 32 30 28 27 25 25 26 27 26 25 25 25 25 25 25 24 24 22 21 21 22 22 23 22 20 18 16 12 6 2 8 12 13 13 14 15 15 14 16 18 18 19 20 22 25 26 27 28 29 29 26 23 21 23 22 20 19 18 17 15 15 14 11 8 8 9 13 15 17 19 20 21 20 17 13 14 15 16 15 15
43 42 42 41 40 38 36 35 33 31 29 27 26 25 27 26 26 25 24 24 24 25 24 24 24 23 21 21 21 21 22 21 19 17 13 9 2 6 11 13 13 14 16 16 14 13 17 18 19 21 21 24 25 24 26 29 29 28 26 24 24 25 24 22 18 18 17 15 17 16 14 12 10 12 14 15 16 18 19 20 19 14 11 13 15 15 15 14
45 44 43 42 40 39 37 36 34 32 30 28 26 26 27 26 26 25 24 24 24 24 24 23 24 23 21 20 21 21 21 19 18 15 11 6 2 8 12 14 14 15 16 16 13 12 17 17 20 23 22 25 25 26 28 28 28 29 30 27 25 26 27 25 22 21 17 15 18 18 19 17 15 17 17 15 17 18 17 18 17 15 12 12 14 14 13 12
46 45 44 43 41 40 38 37 35 33 31 28 27 27 27 26 26 25 24 24 23 24 23 23 23 22 21 20 20 20 20 18 16 13 9 4 4 9 12 13 15 16 15 15 12 11 16 18 21 24 24 26 25 28 31 31 29 29 34 32 24 24 27 29 28 25 19 17 19 18 18 16 15 19 19 17 17 17 17 18 16 16 14 12 13 14 12 12
47 46 45 44 42 41 39 38 36 33 31 29 28 28 27 26 26 25 24 23 23 23 22 22 22 22 21 19 20 20 19 17 14 11 7 3 6 9 11 12 15 17 16 15 12 10 14 18 23 23 23 26 25 28 33 34 32 29 35 37 28 24 26 28 30 29 23 19 18 16 15 15 17 20 20 20 20 19 19 20 19 19 16 13 14 16 14 13
48 47 46 45 44 42 40 39 37 35 32 30 29 28 28 26 25 25 24 23 22 22 22 21 22 22 20 19 19 19 18 15 13 10 5 3 6 9 10 11 12 15 16 14 12 11 13 17 22 23 23 26 25 27 32 34 34 32 35 38 33 27 24 25 28 29 24 19 18 17 15 16 18 21 21 22 23 23 22 22 21 20 16 14 15 15 16 17
50 49 47 46 45 43 42 40 38 36 33 31 29 29 28 27 25 25 24 22 21 21 21 21 21 21 20 19 18 18 17 14 12 8 4 3 5 8 9 10 11 13 14 14 13 12 13 16 19 23 24 24 23 25 30 32 32 33 35 36 34 30 27 26 27 27 24 22 19 19 18 18 20 21 22 23 23 23 24 24 22 20 17 17 14 11 16 19
52 50 49 48 46 45 43 41 39 37 35 32 30 29 28 27 25 24 24 22 21 21 20 20 20 21 20 18 17 17 16 13 11 8 3 2 5 7 8 10 10 12 14 13 13 12 14 17 18 22 22 21 22 25 28 30 30 33 36 35 32 31 30 27 27 27 26 26 24 22 21 21 22 22 23 24 23 22 24 24 23 19 17 20 16 11 17 18
54 52 51 49 47 46 44 42 40 38 36 34 31 30 29 27 26 24 24 22 21 20 20 20 19 20 20 18 17 16 15 13 10 7 3 2 4 6 7 9 10 12 13 12 12 12 14 16 17 20 21 20 22 23 26 29 30 32 35 36 33 31 30 27 26 26 25 26 26 25 24 23 24 24 24 25 23 20 22 23 22 20 18 20 18 12 15 17
55 54 53 51 49 47 45 43 41 39 37 35 33 31 29 28 26 24 24 22 21 20 20 19 19 19 19 18 16 15 15 12 9 6 3 2 4 5 6 8 9 10 11 10 11 13 13 15 16 17 19 19 21 22 24 27 28 30 33 36 35 32 31 28 26 26 24 24 25 25 24 23 24 25 25 24 23 21 21 22 21 20 18 18 17 13 14 19
54 55 55 53 51 49 47 44 42 41 39 36 34 32 30 28 26 25 24 23 21 20 20 19 18 18 18 18 16 15 14 11 8 6 3 2 3 5 6 7 8 9 9 10 11 13 13 14 15 15 16 18 20 21 23 25 27 28 30 32 33 32 32 30 28 27 25 24 25 25 25 25 24 24 24 24 25 24 23 22 20 20 20 20 20 19 19 20
52 54 55 55 53 51 48 46 44 42 40 37 35 33 31 29 27 25 24 23 22 20 20 19 18 17 17 17 16 14 13 11 8 6 4 2 3 4 5 6 7 8 9 10 11 12 12 13 14 15 16 17 19 21 22 24 25 26 27 28 29 28 27 30 30 28 27 26 26 25 25 25 25 24 24 24 24 25 26 25 24 23 24 24 26 27 25 24
50 52 54 55 54 53 50 48 45 43 41 39 36 34 32 30 28 26 24 24 22 20 20 19 18 17 16 17 16 14 12 11 7 5 5 3 2 4 4 5 6 7 9 10 11 11 12 12 12 14 15 17 18 19 21 22 23 24 25 26 26 24 23 27 29 27 26 26 26 25 24 23 23 23 23 23 23 24 26 27 27 27 27 28 30 31 30 29
49 50 52 53 54 54 52 50 47 45 43 40 38 35 33 31 29 27 26 24 23 21 20 19 18 17 16 16 15 14 12 10 7 5 4 4 2 2 3 4 5 7 9 10 11 12 12 11 11 13 14 16 17 18 19 20 21 22 23 23 25 25 24 24 26 26 26 26 26 24 24 23 22 22 22 20 20 22 24 25 26 27 28 30 31 32 32 32
48 49 50 51 53 54 53 52 49 47 45 42 39 37 34 32 30 29 27 25 24 22 21 20 19 17 15 15 15 14 12 9 7 4 3 3 3 1 2 3 4 6 8 9 10 10 11 11 10 12 13 15 16 16 17 17 18 19 21 22 24 25 23 22 23 24 25 26 26 24 24 24 22 22 22 18 16 19 20 22 24 25 27 30 31 33 33 33
48 49 49 50 51 53 53 53 51 49 47 44 41 38 36 34 32 30 28 27 25 24 22 20 19 18 15 14 14 14 12 9 7 4 2 2 2 1 1 3 4 5 7 8 9 10 10 11 10 11 12 13 14 14 13 14 15 17 18 20 23 23 22 21 20 21 22 24 24 24 23 23 22 22 23 21 19 20 21 22 25 26 27 31 32 33 34 33
48 48 49 49 50 51 52 53 52 50 49 47 44 41 38 36 34 32 30 28 27 25 23 21 20 19 16 15 14 13 12 10 7 5 3 1 1 0 2 3 4 6 8 9 10 12 12 13 12 12 12 12 12 12 11 11 12 13 14 16 17 20 21 20 18 18 19 21 22 22 21 21 22 22 22 23 23 23 22 21 25 27 28 30 31 32 33 32
47 48 49 48 49 50 51 52 52 52 51 48 46 43 40 38 36 34 32 30 28 27 25 23 22 20 17 16 14 13 13 11 8 6 5 3 2 2 2 4 5 7 9 10 12 13 14 14 14 13 12 12 11 11 11 11 10 10 12 13 13 15 17 19 19 18 18 19 19 19 20 21 21 21 21 22 23 22 22 21 24 26 27 28 29 29 30 30
46 47 48 48 48 49 49 51 52 52 52 50 48 45 42 40 37 36 35 32 30 28 27 25 23 21 19 17 14 13 13 11 9 7 7 6 5 4 4 4 5 7 8 10 11 12 13 14 14 14 14 13 12 12 12 11 11 12 13 14 14 16 17 18 20 20 20 19 18 18 19 20 20 20 20 20 20 20 21 22 23 24 25 27 28 28 29 30
46 47 48 48 48 48 49 49 50 52 52 51 50 46 44 42 40 38 36 34 32 30 29 27 24 23 21 18 16 14 13 12 11 9 9 9 8 8 7 7 7 7 7 8 9 10 10 11 12 13 13 13 13 13 12 12 12 13 14 15 16 17 17 18 19 20 20 19 18 18 18 19 19 19 19 20 19 17 19 21 21 21 24 27 28 28 30 31
46 46 47 48 48 48 48 48 49 51 52 52 50 48 46 45 43 41 39 36 34 32 31 29 27 25 23 21 18 16 15 13 12 11 11 11 11 11 10 10 9 9 9 8 8 9 9 9 10 11 11 11 11 12 12 12 12 13 14 15 15 16 16 17 17 17 17 17 16 16 16 16 17 18 19 19 18 17 18 20 20 21 24 26 27 27 27 29
45 46 47 47 48 48 48 47 48 49 51 51 50 49 49 47 45 43 41 39 37 34 33 31 29 27 25 22 20 18 16 15 14 13 13 13 14 14 14 13 12 12 11 11 10 10 10 10 10 10 10 10 11 11 11 11 11 12 12 13 13 14 14 14 14 14 15 15 15 15 15 17 18 19 19 17 17 16 16 17 17 19 21 23 26 27 26 26
44 45 46 47 47 48 47 47 47 48 50 50 50 50 50 49 47 46 43 41 39 37 35 33 31 29 27 24 22 20 18 17 17 15 15 15 16 17 17 16 16 15 14 13 13 12 12 12 12 11 12 12 11 12 11 11 11 11 12 13 13 14 14 13 13 13 14 15 16 16 17 18 18 19 18 17 18 16 15 16 14 14 17 19 22 25 25 25
44 44 45 46 47 47 47 46 46 47 48 49 50 50 51 51 49 48 45 43 42 39 37 35 34 32 29 26 25 23 21 20 19 18 17 17 17 19 20 19 19 17 17 16 15 15 15 14 14 13 13 13 13 13 12 12 12 12 13 14 14 15 14 14 14 14 15 16 17 16 16 17 16 19 18 17 19 18 18 19 13 11 15 17 19 22 21 21
44 44 45 46 47 47 46 46 45 46 47 48 49 50 51 51 51 49 47 46 44 41 39 38 36 34 31 29 28 25 23 22 22 20 19 19 19 20 21 22 21 21 20 19 18 18 17 17 16 16 15 15 14 14 13 13 13 14 15 15 15 15 15 14 14 14 15 17 18 17 16 16 16 19 19 18 20 19 18 19 16 13 14 14 19 22 19 18
43 43 44 45 46 46 46 44 45 45 46 48 48 49 51 51 51 50 48 48 45 43 42 39 37 36 34 32 30 27 26 26 24 23 22 21 20 20 22 23 24 24 23 22 21 21 20 20 19 18 18 17 15 14 14 14 16 16 16 16 16 16 15 15 15 15 16 17 18 18 17 18 17 17 19 19 19 19 18 20 20 18 16 14 17 18 18 19
43 43 44 44 45 46 45 44 44 44 46 48 48 49 50 51 50 49 49 49 46 44 43 40 39 38 36 34 32 31 30 28 25 25 25 23 22 22 23 25 25 26 26 25 24 24 24 23 22 21 20 18 18 17 17 17 18 17 17 17 17 17 16 16 16 17 18 18 18 19 18 19 17 14 15 18 18 17 17 19 20 19 19 19 19 18 18 20
43 43 43 44 44 45 44 43 43 44 45 46 48 49 50 50 49 48 49 48 44 44 44 42 41 40 38 37 35 34 32 28 28 29 28 26 25 24 25 26 26 27 28 27 27 27 27 26 25 24 21 21 21 20 20 20 20 19 19 19 19 18 18 18 18 19 19 19 19 19 18 19 17 14 13 15 16 16 16 18 20 20 21 21 22 23 21 20
42 43 43 43 43 44 44 43 42 43 44 46 48 49 49 50 48 47 48 46 43 44 45 43 42 41 41 40 38 36 33 31 32 32 30 29 28 27 27 26 26 28 29 29 30 30 29 29 28 26 24 25 24 23 23 23 22 22 22 21 21 20 20 20 20 20 20 20 21 20 18 18 17 15 15 13 14 16 16 16 18 20 21 21 21 21 19 19
42 42 43 43 43 43 43 42 41 42 44 46 48 49 49 49 47 46 46 43 42 44 45 44 42 42 42 41 40 37 35 34 34 32 31 31 31 30 29 27 28 30 30 31 32 31 31 32 30 29 28 28 27 26 25 26 25 24 24 23 23 22 22 22 22 21 21 21 23 21 18 19 16 14 16 14 13 16 16 15 16 18 19 19 20 20 18 18
42 42 42 42 42 43 43 42 41 42 43 46 48 48 48 47 45 45 44 42 41 44 45 43 41 42 42 41 40 38 37 36 35 34 34 33 33 32 31 30 30 30 30 31 31 32 34 33 32 32 31 30 30 28 28 29 27 26 26 26 25 25 23 23 22 22 22 23 24 23 21 21 17 13 16 17 15 14 16 17 17 17 17 17 20 23 20 19
42 42 42 42 42 43 43 42 41 41 43 46 47 47 47 45 44 44 44 43 42 44 46 43 41 43 42 40 40 40 39 38 37 36 35 35 34 34 33 32 31 31 31 31 32 34 34 33 34 33 31 32 32 30 31 30 30 29 28 27 27 26 23 24 24 23 23 23 24 24 25 25 20 15 18 21 17 15 17 20 19 18 19 18 19 21 20 19
41 42 42 42 42 43 43 42 41 41 43 45 46 47 45 43 44 45 44 43 42 45 45 42 41 42 41 41 41 41 40 39 38 37 37 36 36 36 35 34 34 32 32 32 33 33 32 33 33 31 32 34 34 33 32 32 33 30 28 30 30 26 25 27 26 25 24 23 25 26 28 30 25 18 21 22 18 17 19 21 20 20 22 20 19 20 21 22
41 41 42 42 42 43 43 42 41 41 43 44 45 45 43 44 46 46 45 44 44 46 44 41 41 42 42 42 42 41 41 40 39 38 38 37 38 37 36 36 35 33 32 34 33 32 32 33 30 29 33 34 33 32 31 34 35 29 30 34 30 26 30 30 27 26 26 25 26 28 30 32 26 20 22 23 20 22 24 23 22 23 24 24 23 24 26 27
40 41 41 41 42 43 43 42 41 41 41 43 43 43 43 46 47 45 44 44 43 43 43 43 43 43 43 42 41 42 42 40 40 39 39 39 40 38 37 38 36 34 34 34 32 32 34 32 28 30 34 30 29 29 29 33 31 29 34 32 26 30 35 31 28 28 28 27 27 29 32 32 25 20 23 24 22 24 25 24 25 26 25 26 27 28 29 32
39 40 41 41 41 42 43 42 41 40 40 42 42 43 46 47 45 44 44 42 39 40 43 43 42 43 43 42 41 42 42 41 40 40 40 40 40 39 40 39 36 35 35 34 32 32 34 33 29 33 34 28 29 31 30 31 30 31 33 26 27 37 36 30 30 31 29 28 28 29 32 32 28 23 22 23 23 24 24 22 22 26 28 27 28 30 31 32
39 40 40 40 41 42 42 42 40 39 39 40 42 45 47 46 43 43 43 41 40 42 43 42 42 43 43 43 43 42 42 40 39 41 41 41 40 40 40 38 36 38 37 34 33 32 33 33 30 34 34 30 33 35 33 32 30 29 28 27 32 38 34 30 32 32 29 29 29 31 33 31 28 25 22 22 23 23 25 25 23 26 31 31 29 30 31 32
38 38 39 39 40 41 42 41 40 39 38 40 43 46 46 44 42 43 42 41 41 42 42 43 44 43 43 45 43 40 41 40 39 41 42 42 41 40 40 38 38 40 37 34 34 33 34 33 31 33 32 31 35 36 34 32 29 27 29 33 34 34 33 31 30 30 30 29 28 31 35 29 24 25 23 21 23 22 24 29 28 26 28 31 31 30 32 34
36 37 37 38 40 41 41 41 40 39 39 41 45 46 45 42 42 44 44 43 43 45 45 45 45 44 44 44 41 39 42 42 41 43 44 43 40 39 41 40 38 40 38 36 36 35 35 34 33 33 33 35 39 36 33 32 30 30 33 35 32 31 32 31 29 29 28 29 29 31 34 26 20 25 24 21 25 24 23 27 30 29 27 28 32 32 33 35
35 36 37 38 39 40 41 41 40 40 40 42 44 44 43 42 42 42 43 44 45 46 46 46 44 41 40 41 40 42 45 44 42 44 44 42 41 42 42 40 39 39 39 38 38 37 36 34 34 34 33 37 40 35 33 35 34 32 34 35 33 31 31 30 30 30 27 29 31 31 33 25 19 25 27 26 28 27 25 27 30 31 29 30 34 36 37 36
34 35 38 38 39 40 40 41 41 40 40 41 43 44 43 42 41 40 42 44 45 45 45 45 43 41 39 40 42 44 45 45 44 44 44 42 43 43 41 39 40 41 40 41 38 35 35 34 35 35 34 36 40 35 34 38 36 31 33 37 35 33 31 29 31 31 28 30 31 30 31 28 23 25 29 31 31 28 28 28 28 28 28 31 36 37 38 37
33 36 38 38 38 39 40 41 41 41 41 42 43 43 41 38 38 43 47 47 46 45 44 43 42 43 43 43 44 46 46 46 46 45 44 44 43 42 41 42 44 42 41 40 34 32 36 37 36 36 34 35 40 38 36 38 37 34 36 37 35 34 33 30 31 30 28 31 31 30 30 26 23 28 32 33 33 32 30 29 27 26 27 32 36 37 38 38
33 35 36 36 38 39 40 40 40 40 40 40 41 40 39 40 44 49 49 46 45 45 44 44 45 46 46 46 47 47 44 46 46 45 45 44 41 41 44 45 44 41 39 37 33 35 39 36 33 35 35 35 39 39 38 38 37 37 38 36 32 34 33 30 31 30 28 29 29 31 31 25 21 28 30 29 31 33 31 30 32 31 29 32 35 38 39 39
32 34 35 36 37 39 40 40 40 40 40 40 40 40 42 45 47 48 46 45 45 43 43 45 47 48 48 48 48 46 43 44 47 45 45 43 40 43 47 46 42 39 38 37 36 37 38 33 31 34 34 34 37 39 38 38 37 38 39 37 33 33 33 33 32 31 31 31 29 31 32 28 25 26 26 26 28 30 31 34 36 35 34 35 36 37 38 39
31 32 34 36 37 38 40 39 39 40 40 40 41 42 44 45 45 46 45 45 44 44 45 47 47 48 47 45 46 45 44 46 48 47 46 44 43 46 48 45 41 39 40 38 35 36 36 33 33 34 34 34 36 37 39 38 38 39 39 39 36 33 34 36 35 33 32 31 31 32 32 31 30 27 26 27 27 29 35 37 36 37 39 39 39 38 38 39
30 32 34 36 37 38 38 39 39 39 38 39 41 43 45 46 46 46 46 45 44 45 47 47 46 47 46 44 46 47 47 49 51 49 47 46 45 47 47 44 42 41 41 38 35 36 36 35 35 36 38 38 36 36 40 39 39 40 40 39 39 36 35 36 37 38 35 32 34 35 33 34 35 31 30 29 28 32 37 38 39 41 41 41 42 41 40 40
30 33 35 34 35 38 39 39 39 38 39 41 42 44 45 45 45 46 46 46 45 45 45 45 45 47 47 47 50 51 51 52 52 50 49 47 46 48 48 44 42 42 41 38 36 36 36 36 37 36 38 40 37 37 41 39 38 40 40 40 40 39 38 37 37 39 39 37 38 37 35 37 37 35 35 34 32 33 35 37 40 41 42 43 43 42 41 41
31 34 35 34 34 38 39 39 39 40 42 43 44 45 45 45 45 46 46 46 45 45 46 46 47 48 48 49 51 51 51 53 52 51 51 48 47 49 49 44 42 42 42 39 37 35 36 39 38 37 38 39 39 39 41 39 37 38 40 42 42 41 40 39 39 40 40 41 42 41 39 38 37 36 37 38 38 36 35 36 38 39 42 44 43 42 42 41
31 33 36 37 37 37 38 39 40 43 44 44 45 46 45 44 45 46 46 46 46 46 47 47 48 50 50 50 50 50 51 54 54 53 52 50 49 50 49 45 43 43 42 40 37 36 38 40 39 38 39 39 38 40 42 40 36 36 40 44 42 41 41 41 42 41 41 42 44 44 43 41 37 37 39 40 40 39 38 38 38 39 41 42 43 44 43 41
30 33 36 38 39 38 38 39 40 41 42 43 45 45 44 44 45 46 46 45 45 46 47 48 50 51 50 50 51 52 53 55 54 54 53 52 51 50 49 46 44 43 43 40 37 36 40 42 40 39 39 39 39 41 42 41 36 36 42 44 41 41 43 44 44 42 41 43 45 45 46 43 39 39 41 42 42 43 43 42 40 39 40 42 44 44 44 44
29 33 35 37 39 41 41 40 40 40 40 41 43 44 44 44 45 45 44 44 45 47 48 49 51 51 51 52 53 54 54 55 55 55 55 54 52 51 50 47 44 43 43 41 39 38 41 43 42 39 38 39 41 41 41 40 38 40 43 42 40 43 46 46 44 42 41 44 45 46 46 44 41 40 42 44 45 47 47 44 42 40 41 44 45 45 46 45
Wind_Direction
257 258 260 261 263 264 266 268 270 271 273 275 276 279 280 284 287 291 295 299 303 308 315 320 324 329 335 339 339 340 340 337 338 338 336 335 327 295 193 173 167 170 172 166 163 168 177 174 169 169 176 186 186 186 191 191 191 186 184 190 192 196 199 200 204 207 208 204 210 221 228 246 242 228 246 251 243 244 250 255 262 262 259 265 272 274 282 293
255 257 258 260 261 263 264 266 268 269 271 272 274 276 278 281 285 289 293 297 302 307 313 319 323 328 335 340 341 342 342 340 341 343 341 343 335 202 165 162 161 165 164 157 162 173 175 174 171 171 177 182 182 186 193 195 193 187 188 191 188 191 195 200 206 208 209 211 215 212 210 227 229 230 245 249 245 244 248 252 258 261 266 280 280 277 282 290
254 255 257 258 260 261 262 264 265 267 269 270 272 273 276 279 283 286 291 296 300 305 311 317 321 327 334 340 341 344 344 342 343 347 348 350 354 162 159 158 158 161 159 155 164 178 179 179 175 173 180 180 178 186 195 197 193 191 191 190 191 196 198 199 200 198 203 213 211 197 188 196 204 221 233 237 241 244 249 254 259 266 283 301 299 286 283 292
253 254 255 257 258 260 261 262 264 265 266 268 269 271 273 277 281 284 289 294 299 304 309 315 319 325 333 339 342 344 346 344 346 350 355 1 130 159 158 157 157 158 159 159 164 181 186 184 178 176 180 182 184 189 191 189 190 195 191 185 190 199 201 197 191 189 194 198 195 188 187 193 204 224 232 236 244 243 243 252 258 270 281 298 310 300 289 297
251 253 254 255 257 258 260 261 262 264 265 266 267 268 271 275 279 282 287 292 296 301 307 313 317 323 331 339 342 345 347 347 348 353 2 24 145 159 160 160 158 157 162 163 163 185 189 187 183 179 180 183 188 191 191 189 190 195 191 187 188 191 198 200 197 194 191 183 181 184 192 204 218 230 235 236 247 246 244 253 261 271 271 274 303 311 296 291
250 251 253 254 255 256 258 259 261 262 263 264 264 266 269 273 276 280 284 289 294 299 305 311 315 320 328 337 342 345 347 349 351 355 7 57 149 159 162 164 162 160 167 167 165 186 192 191 186 180 185 188 187 189 194 198 197 196 193 194 195 191 195 202 205 205 202 197 198 202 209 223 231 235 239 240 248 250 249 255 262 267 264 263 287 305 300 291
248 250 251 252 253 255 256 257 258 260 261 262 262 264 267 270 274 278 282 287 291 296 302 308 312 318 325 335 341 345 347 350 354 356 12 82 149 160 163 166 167 167 169 168 166 180 193 196 190 186 190 191 189 190 195 200 201 200 197 198 201 202 200 203 210 213 216 218 220 225 228 234 239 241 246 248 250 252 251 251 256 259 260 270 286 304 302 296
247 248 249 251 252 253 254 255 256 258 259 259 260 263 265 268 271 275 279 283 288 293 298 304 310 315 322 332 340 344 347 351 356 359 16 99 147 161 165 167 170 172 170 169 171 180 190 193 193 194 194 191 191 191 194 199 202 203 201 201 204 208 208 210 215 217 223 230 233 237 238 240 245 248 251 251 251 252 253 251 254 256 260 274 286 302 292 291
245 246 247 249 251 252 253 254 255 256 257 257 258 260 263 265 268 272 276 280 284 289 294 300 306 311 318 328 337 343 346 351 357 3 16 110 146 160 169 171 173 177 175 174 180 186 188 188 191 196 198 197 194 193 194 197 203 205 204 204 206 208 210 215 219 219 224 230 235 240 239 241 245 248 251 249 249 250 253 253 256 258 257 265 277 297 292 289
244 244 245 247 248 250 251 252 253 254 255 256 256 257 260 262 265 269 272 276 280 285 290 296 302 308 314 323 334 341 345 349 358 9 20 107 145 158 170 177 180 184 181 178 184 188 187 190 192 194 200 202 198 197 196 198 203 206 205 205 206 208 210 217 221 221 226 230 232 235 238 242 244 245 248 247 248 249 252 255 259 261 258 261 272 290 290 284
244 244 244 245 246 247 249 250 252 253 254 254 254 255 257 259 262 265 269 272 276 280 285 291 298 304 310 318 330 338 343 347 355 12 34 114 144 157 170 181 186 190 189 184 185 187 188 191 193 194 199 201 200 199 199 202 204 205 207 208 209 210 213 218 222 222 228 231 231 234 238 244 246 245 244 245 247 249 255 258 261 265 264 262 264 261 259 268
244 244 243 244 244 245 246 248 249 251 252 252 253 253 254 256 258 261 264 268 271 275 281 287 294 300 307 314 324 335 340 345 352 11 40 120 144 154 171 182 188 193 196 194 190 188 188 190 191 194 198 200 202 201 201 203 205 207 208 210 212 215 217 221 225 227 229 233 235 236 239 242 246 246 244 245 247 250 255 255 256 261 264 261 259 257 258 265
245 244 244 243 243 243 244 245 247 248 250 250 251 251 252 253 255 257 260 264 267 271 276 282 288 296 302 309 319 329 336 341 347 5 29 94 144 151 168 181 190 194 195 195 193 189 188 188 190 192 195 199 201 201 202 203 205 208 208 209 212 214 220 224 226 229 231 234 236 237 241 243 246 248 248 249 249 250 253 252 252 256 262 262 261 263 265 266
245 244 244 243 243 242 242 242 244 246 247 248 249 250 250 251 252 253 255 259 263 266 271 277 284 290 297 304 312 323 331 336 342 359 20 46 129 144 161 176 186 193 194 193 191 187 183 182 188 192 194 196 198 199 201 202 203 205 206 208 208 208 218 224 224 228 231 234 237 239 243 246 248 248 249 251 252 253 253 252 251 253 258 261 263 265 266 267
245 244 244 243 243 242 242 241 241 242 244 246 246 247 248 248 249 250 252 255 259 262 266 272 278 284 291 299 306 315 324 329 336 351 14 28 64 129 150 171 185 189 187 186 181 177 173 172 181 189 191 192 195 197 198 200 201 203 203 205 205 208 217 222 222 226 230 234 237 239 243 247 250 250 250 252 256 256 257 257 256 257 260 263 266 267 268 270
245 244 243 243 243 242 242 240 240 240 241 243 244 245 245 246 247 248 249 251 255 258 262 267 273 278 285 292 300 307 316 322 327 338 6 20 30 90 140 166 184 183 177 172 166 163 162 164 176 186 187 189 190 193 195 197 199 201 201 201 202 207 215 220 222 226 230 233 236 238 241 246 249 250 250 249 253 256 257 262 263 263 266 268 270 271 272 273
246 244 243 243 242 242 241 241 239 239 239 240 241 242 243 244 245 246 247 249 251 254 257 261 267 272 278 285 293 299 306 312 313 315 338 7 20 60 149 169 182 178 170 163 157 155 156 158 166 175 178 181 182 182 186 192 196 199 200 200 201 205 212 218 223 229 230 233 236 239 242 245 249 250 250 249 251 256 258 263 266 265 267 269 270 271 272 272
246 245 244 243 242 241 241 240 239 238 238 238 239 239 240 242 243 245 246 247 249 252 254 258 263 268 273 277 283 289 294 301 301 294 284 288 328 268 172 175 183 181 174 170 166 162 161 161 162 166 168 172 173 170 174 185 190 195 198 198 201 206 212 217 225 229 231 232 234 239 242 244 249 252 252 253 255 260 262 264 266 265 267 269 269 269 269 269
245 244 244 243 242 241 240 240 239 238 237 237 237 238 238 240 241 243 244 245 247 250 252 254 259 263 266 270 274 278 284 289 287 275 259 242 237 237 204 184 185 186 182 179 178 174 170 168 167 169 172 175 177 175 179 186 189 196 200 201 204 209 214 220 226 229 233 234 234 239 241 242 249 253 254 256 257 261 262 264 267 267 268 269 271 271 270 269
244 243 243 242 242 241 240 239 238 238 237 237 236 236 237 238 239 241 243 244 245 248 250 252 255 259 261 264 267 267 272 277 275 263 248 235 227 227 224 207 191 190 190 186 185 185 181 177 176 179 180 182 187 190 193 196 200 204 206 208 211 214 218 222 226 229 233 237 237 239 242 243 248 253 257 259 259 264 265 267 271 272 270 270 271 273 272 271
244 242 241 241 241 241 240 239 237 237 237 236 236 235 235 237 237 239 241 242 243 245 248 250 252 256 259 260 260 259 260 264 266 259 245 235 226 224 225 222 210 200 199 196 193 192 191 188 185 187 189 191 195 199 203 207 210 213 214 215 217 219 222 224 227 230 233 238 241 244 246 248 252 258 262 262 264 269 271 273 275 274 274 272 270 270 270 271
243 242 240 240 240 241 240 239 237 237 236 236 235 234 234 235 236 237 239 240 242 244 247 249 251 253 256 257 256 254 251 253 257 255 247 239 230 225 224 225 223 214 208 207 205 203 202 199 195 194 196 201 203 206 210 213 217 220 222 222 224 225 226 228 232 236 239 243 247 251 255 258 263 265 265 269 273 272 274 278 280 280 282 281 278 274 271 270
242 242 240 238 238 239 240 239 237 236 236 235 234 233 234 234 235 236 237 238 240 242 244 247 249 251 253 254 253 251 247 246 248 249 247 242 234 229 227 226 226 224 219 215 214 216 216 212 207 205 205 208 212 215 217 221 224 226 229 232 234 235 236 237 241 245 250 254 257 260 264 270 273 271 271 275 275 275 282 285 284 286 288 286 284 280 274 271
241 241 240 238 237 237 238 239 237 236 235 235 234 233 234 234 234 235 236 237 238 240 242 245 247 248 250 251 251 249 246 243 243 245 246 243 238 233 230 229 228 228 227 224 222 224 226 223 219 216 216 218 220 222 225 230 234 237 242 244 247 249 248 248 250 254 260 264 266 269 272 275 275 273 274 274 270 274 286 283 282 289 288 288 289 286 282 278
241 240 239 238 236 236 237 237 237 236 235 234 233 233 234 234 234 235 235 236 237 239 240 242 244 246 247 249 249 248 245 243 242 243 244 244 240 237 234 232 231 231 232 231 229 229 231 231 229 227 226 227 229 230 231 235 241 246 249 251 254 255 256 256 257 261 266 270 270 272 272 271 272 275 278 280 278 281 283 275 271 279 286 293 294 291 289 286
240 239 238 237 235 234 235 236 236 235 234 234 233 233 233 233 233 234 234 235 237 238 239 240 242 245 246 246 247 247 245 244 243 242 243 243 241 240 238 235 233 232 233 233 234 235 235 236 235 235 234 235 236 236 238 241 246 248 250 252 254 254 256 258 261 264 267 270 272 271 269 268 273 279 284 286 284 283 279 271 269 269 275 296 296 288 287 284
239 238 237 236 234 233 234 235 235 234 233 233 232 232 233 233 233 233 234 235 235 236 238 239 241 243 244 245 245 246 245 243 242 243 243 243 243 242 240 238 235 234 233 234 235 237 238 238 238 239 240 241 242 243 244 245 248 249 250 253 254 254 256 259 262 264 264 267 270 272 274 274 275 279 285 286 281 279 276 268 271 274 274 290 295 287 283 281
239 237 236 235 234 232 232 233 233 232 231 232 232 232 232 233 233 232 233 234 235 236 239 239 240 242 243 244 245 244 243 242 243 245 245 245 244 243 241 240 238 236 235 234 234 236 238 240 240 241 243 245 246 247 247 248 249 251 253 256 257 257 259 261 264 266 266 268 272 277 280 281 281 283 289 291 286 281 279 275 277 278 279 286 287 283 283 284
238 236 235 234 233 231 231 232 232 231 230 230 231 231 232 233 233 232 233 234 234 236 238 239 239 242 243 244 244 244 243 242 242 243 244 244 244 243 242 242 240 239 238 237 237 238 239 242 243 244 245 248 249 249 250 251 253 254 256 258 261 263 264 267 269 271 273 275 278 281 285 288 288 290 290 293 291 281 275 280 281 277 278 283 284 287 291 289
236 235 234 233 232 231 229 230 231 230 229 228 230 231 231 232 232 232 233 233 233 234 237 238 238 239 241 242 243 243 242 241 241 242 243 245 245 245 244 243 242 241 240 239 238 239 240 242 244 246 246 248 249 251 253 255 256 257 260 262 265 267 269 271 273 276 279 282 283 283 287 288 289 294 289 281 282 280 274 278 284 285 288 289 288 290 290 286
235 234 233 232 231 230 228 229 229 229 228 228 229 230 230 231 231 231 232 232 231 234 236 236 237 238 240 241 242 242 242 241 241 241 242 244 244 245 245 244 242 241 239 239 239 240 242 243 244 245 247 248 250 252 255 257 258 260 263 265 267 269 272 274 276 279 283 287 287 287 290 288 287 297 291 273 268 277 279 282 287 289 293 296 297 297 289 283
234 233 231 231 230 229 228 228 228 228 227 227 228 229 230 230 231 231 232 231 230 233 236 235 236 238 239 240 242 242 242 242 241 241 241 242 244 245 245 245 244 243 243 243 242 242 243 243 245 245 246 249 251 253 255 257 260 263 264 266 269 270 273 276 278 282 286 289 290 292 295 293 295 304 293 277 264 260 266 276 281 283 289 298 301 298 290 283
233 231 230 230 229 228 226 226 227 227 227 227 227 228 229 229 230 231 231 229 229 231 234 232 233 236 237 238 240 241 241 241 240 240 241 242 243 245 246 246 246 244 244 243 242 242 243 245 246 246 248 251 252 253 254 258 260 261 264 268 269 270 274 276 278 283 289 292 294 297 299 297 300 306 295 284 270 252 256 267 273 277 284 295 299 292 283 278
232 230 229 229 228 227 225 225 226 226 226 226 226 227 227 227 228 229 229 228 228 230 233 232 232 235 237 237 238 239 239 239 240 240 240 241 242 244 245 246 246 245 244 244 244 245 246 247 249 251 252 253 254 253 254 258 259 261 266 268 269 273 275 274 276 282 286 288 291 294 294 294 298 303 297 287 276 270 271 269 267 267 270 277 285 285 281 279
231 230 228 228 228 226 225 224 225 225 226 226 226 226 226 226 227 228 227 226 226 228 231 232 232 233 234 235 236 237 237 238 238 239 240 241 242 243 244 246 247 246 245 246 246 246 247 247 249 253 252 253 255 257 257 258 259 262 264 264 269 275 273 272 276 281 281 283 286 287 285 287 292 298 293 282 275 281 282 274 268 267 267 271 274 275 276 276
230 229 228 228 227 226 224 224 224 225 225 225 225 224 225 226 226 227 227 227 228 229 230 230 230 231 232 233 234 236 237 237 237 238 239 240 241 242 244 246 248 247 247 248 247 247 249 249 246 248 251 254 258 259 257 257 259 262 261 264 274 273 269 273 278 278 279 280 282 282 282 286 290 293 290 284 280 281 277 271 272 274 276 278 280 281 279 273
229 228 228 228 227 226 224 223 224 224 225 224 223 223 224 225 225 226 227 226 227 230 231 230 231 232 233 233 233 235 236 235 236 238 238 239 241 242 244 246 248 249 248 249 248 247 250 251 247 249 255 259 260 260 261 262 262 261 264 271 273 269 269 275 276 276 278 280 281 281 283 288 291 291 291 289 289 287 278 270 276 285 289 287 288 290 285 276
228 227 228 228 227 225 224 223 223 224 224 223 223 223 225 225 224 226 228 225 224 227 231 231 231 232 233 233 233 234 237 236 236 238 239 240 241 242 244 246 247 249 250 250 250 249 250 251 249 252 258 259 259 260 262 264 264 267 274 275 267 267 272 274 274 276 278 279 282 283 284 287 292 293 291 286 285 286 283 276 274 284 290 289 290 292 286 281
228 227 228 228 227 225 223 223 223 223 223 223 223 223 224 223 222 224 226 225 224 227 230 230 231 231 231 232 232 233 237 237 236 238 239 239 240 242 244 245 245 248 251 250 250 249 250 251 249 251 256 256 255 257 260 264 269 275 275 269 265 268 273 273 274 278 279 279 280 282 282 285 291 291 285 278 274 273 276 278 278 281 283 285 288 291 288 288
227 227 227 227 226 225 223 222 222 222 222 222 223 223 223 222 222 223 223 222 222 224 227 229 231 230 230 233 232 233 237 236 234 236 237 237 239 241 243 243 244 247 250 249 249 249 249 250 249 249 252 254 255 259 264 267 268 268 268 267 268 271 274 277 279 278 279 281 281 281 281 282 284 280 279 277 272 265 260 269 279 285 285 286 288 290 289 290
226 226 227 226 225 223 222 221 221 222 222 223 223 223 222 221 222 224 225 224 223 223 225 228 232 233 233 234 233 231 235 236 235 237 238 237 238 239 241 241 243 246 248 248 248 248 248 249 249 249 249 253 257 259 262 264 263 262 267 272 274 274 276 281 281 279 279 279 278 279 281 283 281 280 284 282 274 268 263 265 275 282 285 288 291 293 292 292
226 225 226 225 224 222 221 221 221 222 222 223 223 223 221 220 221 223 224 225 226 226 227 228 231 232 231 231 231 232 234 236 237 238 240 238 237 240 242 241 242 242 244 247 247 247 249 249 249 249 247 250 257 259 258 261 263 264 267 271 274 277 278 279 279 279 280 279 277 277 279 284 287 287 287 284 280 281 280 277 276 275 278 285 289 291 293 295
225 225 225 225 224 221 220 220 221 222 223 223 222 222 221 219 220 222 223 223 223 224 226 229 230 231 231 230 231 232 233 235 237 238 239 239 239 241 242 241 242 243 244 248 251 249 249 249 247 249 249 250 256 259 259 262 267 268 266 267 272 276 277 278 278 278 278 278 279 280 279 280 284 282 279 280 285 287 287 286 282 276 278 285 289 291 294 296
225 225 224 224 223 222 220 220 221 222 224 224 224 222 219 216 217 221 223 223 223 222 223 224 226 229 231 232 234 235 236 238 240 240 240 241 240 241 242 243 244 246 248 251 251 247 248 250 250 252 252 252 255 258 259 262 266 268 267 268 271 273 277 278 277 278 278 277 278 280 279 278 276 272 271 274 278 281 284 285 283 280 277 279 284 290 295 298
225 224 224 223 223 222 221 220 221 222 223 223 222 221 219 219 220 222 223 223 223 224 224 225 225 227 229 231 234 237 238 241 244 244 245 245 242 241 244 247 247 248 249 250 248 247 250 253 254 255 254 252 254 258 258 259 262 265 268 270 270 271 275 276 276 278 279 279 279 278 279 281 278 272 271 271 272 275 277 278 280 282 281 283 287 292 296 300
224 224 223 223 222 221 221 220 221 222 223 222 221 220 219 220 222 224 225 224 223 222 223 225 226 228 230 232 236 238 238 241 243 244 245 245 243 243 246 249 251 250 249 250 249 250 252 251 252 255 256 254 253 256 258 257 258 261 264 269 270 271 273 276 279 279 276 278 279 278 280 282 280 277 276 277 279 279 278 281 285 287 289 292 295 297 299 300
222 223 223 223 223 221 221 221 221 222 223 223 223 222 221 220 220 222 223 224 224 223 224 225 225 227 228 228 232 235 237 240 242 243 244 244 243 246 247 248 249 249 250 252 252 251 252 251 250 252 256 256 254 254 257 257 258 261 263 266 269 271 271 273 277 278 278 279 279 279 281 281 282 284 283 284 284 280 283 290 293 292 294 296 297 298 300 300
221 221 221 222 223 221 220 221 222 222 222 223 222 222 222 222 222 222 222 222 223 224 225 227 227 228 227 225 228 231 233 237 241 243 244 244 244 247 248 247 248 250 251 253 252 251 252 252 251 250 253 258 258 258 258 258 259 262 264 266 268 271 271 271 273 277 280 281 280 280 281 281 284 289 290 290 286 280 283 287 287 289 292 293 295 297 299 299
222 222 221 221 222 221 219 219 220 221 221 221 221 222 222 221 222 223 223 222 222 223 224 225 225 227 228 227 229 232 235 238 242 243 244 245 245 247 249 249 249 251 252 252 251 251 251 251 252 252 253 256 259 260 261 261 260 261 265 266 267 269 271 273 274 275 278 280 281 282 283 283 286 290 290 290 288 287 287 285 283 286 290 292 295 297 298 300
224 222 222 221 222 223 220 219 221 222 221 221 221 222 221 220 221 223 224 222 222 223 225 225 226 226 227 228 229 231 233 237 240 242 244 246 246 247 249 249 248 250 251 251 251 250 251 251 251 252 253 255 258 260 262 262 261 263 264 265 266 268 271 272 272 273 275 278 280 283 284 286 290 291 289 288 288 289 289 286 285 288 291 294 296 297 299 300
226 223 223 222 223 224 223 221 222 223 222 222 223 223 221 220 221 222 224 224 223 224 225 226 227 228 228 229 229 229 231 235 238 241 244 245 245 247 249 249 249 250 251 253 251 251 252 253 251 252 255 257 257 258 261 263 264 264 263 264 267 269 270 270 270 273 275 277 279 282 284 286 290 290 288 289 290 290 290 289 290 293 294 295 296 297 299 300
229 226 224 223 223 224 225 224 224 224 223 224 225 224 223 222 221 222 223 225 225 224 226 227 228 228 228 229 230 231 232 234 237 240 243 245 246 247 249 251 251 252 253 254 253 251 252 254 254 252 254 257 258 258 260 263 265 263 263 266 269 268 268 270 273 274 275 277 280 281 283 286 287 286 286 288 290 290 290 291 293 296 296 296 297 298 298 299
Height
10977 10978 10979 10980 10981 10982 10983 10983 10984 10985 10985 10985 10985 10985 10985 10985 10985 10985 10985 10984 10984 10983 10982 10981 10980 10979 10978 10977 10975 10973 10971 10969 10967 10966 10964 10962 10961 10960 10961 10962 10964 10966 10968 10970 10972 10974 10976 10978 10980 10981 10982 10983 10984 10986 10987 10987 10991 10995 10997 10999 11001 11002 11004 11005 11006 11007 11008 11010 11011 11013 11014 11014 11016 11017 11015 11013 11010 11008 11007 11008 11008 11008 11007 11007 11007 11006 11006 11006
10974 10975 10976 10977 10978 10979 10980 10981 10982 10982 10983 10983 10983 10983 10983 10983 10983 10983 10983 10983 10982 10982 10981 10980 10979 10978 10977 10976 10974 10972 10970 10968 10966 10965 10963 10961 10960 10960 10961 10963 10964 10966 10967 10970 10972 10973 10975 10977 10979 10979 10980 10981 10982 10984 10985 10986 10989 10994 10996 10998 11000 11002 11003 11005 11005 11007 11008 11009 11010 11012 11013 11014 11014 11013 11010 11009 11008 11007 11007 11007 11007 11008 11007 11006 11006 11005 11004 11004
10971 10972 10973 10974 10975 10976 10977 10978 10979 10980 10981 10981 10981 10981 10981 10981 10981 10982 10982 10981 10981 10980 10979 10978 10977 10977 10976 10975 10973 10971 10970 10967 10966 10964 10962 10961 10960 10960 10962 10963 10965 10966 10967 10970 10971 10973 10975 10976 10977 10978 10979 10980 10981 10982 10983 10985 10989 10992 10995 10997 10999 11000 11002 11004 11004 11006 11007 11008 11009 11010 11012 11012 11009 11006 11005 11005 11006 11006 11006 11006 11007 11009 11007 11006 11005 11004 11003 11003
10967 10968 10970 10971 10972 10973 10974 10976 10977 10978 10978 10979 10979 10979 10979 10979 10980 10980 10980 10980 10979 10979 10978 10977 10976 10976 10975 10974 10972 10971 10969 10967 10965 10964 10963 10961 10961 10961 10962 10963 10965 10966 10968 10970 10971 10973 10974 10974 10975 10976 10977 10978 10979 10979 10981 10984 10987 10989 10992 10995 10997 10998 11000 11002 11003 11004 11006 11006 11007 11008 11008 11006 11003 11001 11001 11002 11002 11004 11005 11005 11006 11007 11007 11006 11005 11004 11003 11002
10963 10965 10966 10967 10969 10970 10971 10973 10974 10975 10976 10977 10977 10977 10977 10978 10978 10978 10978 10978 10978 10977 10977 10976 10975 10974 10974 10973 10972 10970 10968 10967 10965 10964 10963 10962 10961 10962 10963 10963 10964 10966 10968 10970 10970 10972 10973 10974 10975 10976 10976 10977 10978 10979 10980 10982 10984 10987 10990 10993 10995 10996 10998 11000 11002 11003 11004 11005 11005 11006 11004 11003 11001 11000 11001 11001 11001 11003 11004 11004 11005 11005 11005 11005 11005 11005 11003 11002
10960 10961 10962 10964 10965 10967 10968 10970 10971 10973 10974 10975 10975 10975 10976 10976 10976 10976 10976 10976 10976 10976 10975 10975 10974 10973 10973 10972 10971 10969 10968 10967 10965 10964 10963 10962 10962 10962 10963 10964 10965 10965 10968 10969 10970 10972 10973 10973 10974 10975 10976 10977 10978 10979 10980 10982 10984 10986 10989 10991 10993 10995 10997 10999 11000 11001 11003 11004 11003 11003 11002 11001 11001 11000 11000 11000 11001 11002 11003 11004 11004 11004 11004 11004 11005 11004 11002 11002
10956 10957 10959 10960 10962 10963 10965 10967 10968 10970 10971 10972 10973 10973 10974 10974 10974 10974 10974 10975 10975 10974 10974 10973 10973 10972 10972 10971 10970 10969 10968 10966 10965 10964 10963 10963 10963 10963 10963 10964 10965 10965 10967 10968 10968 10970 10972 10973 10974 10974 10975 10976 10977 10979 10980 10982 10984 10986 10988 10990 10992 10994 10996 10997 10998 10999 11000 11001 11002 11001 11001 11001 11000 10999 11000 11000 11001 11001 11002 11003 11004 11004 11003 11003 11004 11003 11000 10999
10951 10953 10955 10956 10958 10960 10962 10963 10965 10967 10968 10970 10971 10971 10972 10972 10973 10973 10973 10973 10973 10973 10973 10972 10971 10971 10971 10970 10970 10968 10967 10966 10965 10964 10964 10963 10963 10963 10964 10964 10965 10966 10966 10967 10967 10968 10970 10972 10973 10974 10974 10976 10977 10978 10980 10982 10984 10986 10987 10989 10991 10992 10994 10995 10996 10998 10999 10999 11000 11000 11000 11000 10999 10999 11000 11001 11001 11001 11001 11002 11003 11003 11002 11002 11003 11002 10999 10999
10947 10949 10951 10952 10954 10956 10958 10960 10962 10963 10965 10967 10968 10969 10969 10970 10971 10971 10971 10971 10972 10971 10971 10971 10970 10970 10969 10969 10969 10968 10967 10966 10965 10964 10964 10963 10963 10963 10963 10964 10965 10965 10966 10966 10966 10967 10969 10970 10972 10973 10974 10975 10976 10978 10980 10982 10984 10984 10986 10987 10989 10991 10992 10993 10995 10997 10998 10998 10998 10998 10999 10999 10999 10999 10999 10999 11000 11001 11000 11000 11001 11002 11002 11001 11001 11001 10999 11000
10943 10945 10946 10948 10950 10952 10954 10956 10958 10960 10962 10964 10965 10966 10967 10968 10969 10969 10969 10970 10970 10970 10970 10970 10969 10969 10968 10968 10968 10967 10966 10965 10964 10964 10963 10963 10963 10963 10963 10964 10964 10965 10965 10965 10966 10967 10968 10969 10971 10972 10974 10975 10976 10977 10979 10981 10982 10983 10985 10986 10988 10989 10991 10992 10994 10995 10996 10997 10997 10997 10998 10998 10998 10998 10998 10998 10999 11000 11000 10999 11000 11001 11002 11002 11000 11000 11002 11003
10938 10940 10942 10944 10946 10948 10951 10953 10955 10957 10959 10961 10962 10964 10965 10965 10966 10967 10967 10968 10968 10968 10968 10968 10968 10968 10967 10967 10967 10967 10965 10965 10964 10963 10963 10963 10963 10963 10963 10963 10963 10964 10965 10964 10965 10966 10967 10969 10970 10972 10973 10974 10975 10977 10978 10979 10980 10982 10983 10985 10987 10989 10990 10991 10992 10994 10995 10995 10995 10996 10997 10997 10997 10997 10998 10998 10998 10999 11000 11000 11000 11000 11001 11001 11000 11001 11005 11007
10933 10936 10938 10939 10942 10944 10947 10949 10951 10953 10955 10957 10959 10961 10962 10963 10964 10965 10965 10966 10966 10967 10967 10967 10967 10967 10966 10966 10966 10966 10965 10964 10964 10963 10963 10963 10963 10963 10963 10963 10963 10964 10964 10964 10965 10966 10967 10968 10969 10971 10972 10973 10975 10976 10977 10978 10979 10980 10982 10984 10986 10988 10989 10990 10991 10993 10994 10994 10994 10995 10996 10996 10996 10996 10997 10998 10998 10998 10999 11000 11000 10999 10999 11000 11000 11001 11005 11006
10929 10931 10933 10935 10937 10940 10942 10945 10948 10950 10952 10954 10956 10958 10959 10960 10962 10963 10963 10964 10964 10965 10965 10965 10965 10965 10965 10965 10965 10965 10964 10963 10963 10963 10962 10962 10962 10962 10963 10963 10963 10964 10964 10964 10965 10966 10966 10967 10968 10969 10971 10972 10973 10974 10975 10977 10978 10979 10981 10983 10985 10987 10988 10989 10990 10991 10992 10992 10993 10994 10994 10994 10995 10995 10997 10997 10998 10998 10998 10999 10999 10998 10998 10998 10999 10999 11001 11002
10924 10926 10928 10930 10933 10935 10938 10941 10944 10946 10948 10951 10953 10955 10956 10958 10959 10960 10961 10962 10962 10963 10964 10964 10964 10964 10964 10964 10963 10964 10963 10963 10962 10962 10962 10962 10962 10962 10962 10963 10963 10964 10964 10964 10965 10965 10966 10967 10968 10969 10970 10971 10972 10974 10975 10976 10977 10978 10980 10982 10984 10986 10987 10987 10988 10989 10990 10991 10992 10992 10993 10993 10994 10995 10996 10997 10997 10997 10997 10997 10998 10997 10997 10997 10997 10997 10998 10998
10919 10922 10924 10926 10928 10931 10934 10936 10939 10942 10944 10947 10949 10951 10953 10955 10956 10957 10958 10959 10960 10961 10962 10962 10962 10963 10963 10963 10962 10963 10963 10962 10962 10961 10961 10961 10961 10961 10962 10962 10963 10964 10964 10964 10964 10965 10965 10966 10967 10968 10969 10970 10972 10973 10974 10975 10976 10977 10979 10980 10983 10984 10985 10985 10987 10988 10989 10990 10990 10991 10992 10992 10992 10993 10994 10996 10996 10996 10996 10996 10996 10996 10996 10995 10994 10994 10994 10994
10915 10917 10919 10921 10923 10926 10929 10932 10935 10938 10940 10943 10946 10948 10950 10952 10953 10954 10956 10957 10958 10959 10960 10960 10961 10961 10962 10961 10961 10961 10962 10961 10961 10961 10961 10961 10961 10961 10961 10962 10962 10963 10963 10964 10964 10964 10965 10965 10967 10968 10968 10969 10971 10972 10973 10974 10976 10977 10978 10979 10981 10983 10984 10985 10986 10986 10987 10988 10989 10990 10991 10991 10992 10992 10993 10995 10995 10994 10994 10994 10994 10995 10994 10991 10990 10990 10991 10991
10910 10912 10914 10916 10919 10921 10924 10927 10930 10933 10936 10939 10942 10945 10947 10949 10950 10951 10953 10954 10955 10957 10958 10958 10959 10960 10960 10960 10960 10960 10960 10961 10960 10960 10960 10961 10961 10961 10961 10961 10962 10962 10963 10963 10963 10964 10965 10966 10967 10968 10968 10969 10970 10972 10973 10974 10975 10976 10978 10979 10980 10982 10983 10984 10985 10985 10986 10986 10988 10989 10989 10990 10990 10991 10991 10993 10993 10993 10993 10993 10993 10992 10991 10988 10986 10987 10988 10987
10905 10907 10909 10912 10914 10916 10919 10922 10925 10929 10931 10934 10938 10941 10943 10945 10947 10949 10950 10952 10953 10954 10956 10957 10957 10958 10959 10959 10959 10959 10959 10960 10960 10960 10960 10960 10961 10961 10961 10961 10962 10962 10963 10963 10963 10964 10965 10966 10967 10967 10968 10969 10970 10971 10972 10973 10975 10976 10977 10978 10979 10981 10982 10983 10983 10984 10985 10985 10986 10987 10988 10988 10988 10989 10990 10991 10991 10991 10992 10992 10990 10989 10988 10985 10983 10984 10984 10983
10900 10902 10904 10907 10909 10911 10914 10917 10921 10924 10927 10930 10933 10936 10939 10941 10944 10945 10947 10949 10950 10951 10953 10954 10955 10956 10957 10958 10958 10958 10958 10958 10959 10959 10959 10960 10960 10961 10961 10961 10962 10962 10963 10963 10964 10964 10965 10965 10966 10967 10968 10969 10970 10971 10972 10973 10974 10975 10977 10977 10979 10980 10981 10981 10982 10983 10983 10984 10985 10985 10986 10987 10987 10988 10989 10989 10989 10990 10991 10990 10988 10987 10986 10983 10981 10981 10981 10980
10895 10897 10900 10902 10904 10906 10909 10912 10916 10919 10922 10925 10928 10932 10936 10938 10940 10942 10943 10946 10947 10949 10950 10952 10953 10954 10955 10956 10957 10957 10957 10957 10957 10958 10958 10959 10960 10960 10961 10961 10962 10962 10963 10963 10964 10964 10965 10965 10965 10966 10967 10968 10970 10971 10972 10973 10974 10975 10976 10977 10978 10979 10980 10980 10981 10981 10982 10983 10984 10984 10984 10985 10986 10986 10987 10987 10987 10988 10988 10987 10986 10985 10983 10981 10980 10979 10977 10976
10890 10892 10895 10897 10899 10902 10904 10907 10911 10914 10917 10921 10924 10929 10932 10934 10936 10938 10940 10943 10944 10946 10947 10949 10951 10952 10953 10954 10955 10956 10956 10956 10956 10956 10957 10958 10959 10959 10960 10961 10961 10962 10962 10963 10964 10964 10965 10965 10966 10966 10967 10968 10969 10970 10971 10972 10973 10974 10975 10976 10977 10977 10978 10979 10980 10980 10981 10982 10982 10982 10983 10983 10984 10984 10984 10984 10985 10985 10985 10984 10984 10982 10979 10978 10977 10977 10975 10973
10885 10888 10890 10892 10894 10897 10899 10903 10906 10909 10913 10916 10920 10924 10927 10929 10932 10934 10936 10939 10940 10943 10944 10946 10948 10949 10950 10952 10953 10954 10954 10955 10955 10955 10955 10956 10957 10958 10959 10960 10960 10961 10962 10962 10963 10964 10964 10965 10966 10966 10967 10968 10969 10970 10971 10972 10973 10973 10974 10975 10976 10976 10977 10978 10978 10979 10979 10980 10980 10980 10981 10981 10981 10981 10981 10981 10982 10983 10983 10982 10982 10979 10976 10974 10973 10972 10972 10970
10880 10883 10885 10887 10889 10892 10895 10898 10901 10904 10908 10911 10916 10919 10921 10924 10927 10930 10932 10935 10937 10939 10941 10943 10945 10946 10948 10949 10951 10951 10952 10953 10953 10953 10954 10954 10955 10956 10957 10958 10959 10960 10961 10961 10962 10963 10964 10965 10965 10966 10967 10968 10968 10969 10970 10971 10972 10972 10973 10974 10974 10975 10976 10976 10977 10977 10977 10978 10978 10978 10978 10978 10978 10977 10978 10979 10980 10980 10980 10980 10980 10977 10974 10972 10969 10967 10968 10967
10875 10878 10880 10882 10885 10887 10890 10893 10896 10900 10903 10907 10911 10914 10916 10919 10923 10925 10928 10931 10933 10935 10937 10940 10942 10943 10945 10947 10948 10949 10950 10951 10951 10952 10952 10953 10953 10954 10955 10956 10957 10958 10959 10960 10961 10962 10963 10964 10964 10965 10966 10967 10967 10968 10969 10970 10970 10971 10972 10972 10973 10974 10974 10975 10975 10975 10975 10975 10975 10976 10976 10975 10975 10974 10975 10976 10976 10977 10977 10977 10977 10975 10971 10970 10967 10964 10963 10962
10870 10873 10875 10878 10880 10883 10885 10888 10892 10895 10898 10902 10906 10909 10911 10914 10917 10920 10924 10927 10929 10932 10934 10936 10938 10940 10942 10944 10945 10946 10947 10948 10949 10950 10950 10951 10952 10952 10953 10954 10955 10957 10958 10959 10960 10960 10961 10962 10963 10964 10964 10965 10966 10967 10967 10968 10969 10970 10971 10971 10972 10972 10973 10973 10973 10973 10973 10973 10973 10973 10973 10973 10972 10972 10972 10972 10972 10973 10973 10972 10973 10972 10969 10968 10966 10964 10962 10959
10865 10867 10870 10873 10875 10878 10881 10884 10888 10891 10894 10898 10901 10904 10906 10909 10912 10915 10919 10922 10925 10928 10930 10932 10935 10936 10939 10941 10942 10943 10945 10946 10947 10948 10948 10949 10950 10950 10951 10952 10953 10955 10956 10957 10958 10959 10959 10960 10961 10962 10963 10963 10964 10965 10966 10966 10967 10968 10969 10970 10970 10971 10971 10971 10971 10972 10971 10970 10970 10970 10970 10971 10971 10970 10969 10969 10969 10969 10969 10968 10968 10967 10966 10965 10963 10962 10961 10958
10860 10862 10865 10868 10870 10873 10876 10880 10883 10886 10890 10892 10896 10898 10900 10903 10906 10911 10915 10917 10921 10924 10926 10929 10931 10933 10935 10937 10939 10941 10942 10942 10943 10945 10946 10947 10948 10948 10949 10950 10951 10952 10954 10955 10956 10957 10957 10958 10959 10960 10960 10961 10962 10963 10964 10964 10965 10966 10967 10968 10968 10969 10969 10969 10969 10969 10969 10968 10968 10968 10968 10968 10969 10968 10966 10966 10966 10966 10965 10964 10963 10963 10962 10962 10960 10958 10957 10956
10854 10857 10860 10862 10866 10868 10872 10876 10878 10882 10885 10887 10890 10893 10895 10898 10901 10907 10910 10911 10916 10920 10922 10926 10928 10929 10932 10934 10935 10937 10938 10939 10942 10942 10943 10944 10945 10946 10947 10947 10948 10950 10951 10952 10954 10954 10955 10955 10956 10957 10958 10959 10960 10961 10962 10962 10963 10964 10965 10966 10966 10967 10967 10967 10967 10966 10966 10966 10965 10965 10965 10965 10965 10966 10964 10963 10962 10961 10960 10959 10958 10957 10957 10957 10956 10954 10953 10951
10849 10852 10854 10857 10861 10864 10868 10871 10874 10877 10880 10883 10885 10887 10890 10893 10897 10902 10904 10908 10914 10917 10918 10921 10924 10926 10928 10930 10931 10933 10934 10938 10939 10938 10939 10941 10942 10943 10944 10944 10946 10947 10948 10950 10951 10951 10952 10953 10954 10955 10956 10957 10957 10958 10960 10960 10961 10962 10963 10963 10964 10964 10964 10964 10964 10963 10963 10963 10963 10963 10963 10962 10962 10962 10962 10960 10957 10955 10955 10954 10953 10952 10953 10954 10952 10950 10948 10947
10844 10846 10849 10853 10856 10859 10863 10866 10869 10872 10875 10878 10879 10881 10885 10888 10893 10897 10900 10905 10911 10912 10913 10916 10919 10921 10923 10925 10926 10928 10932 10934 10934 10934 10936 10938 10939 10940 10941 10942 10943 10944 10945 10947 10947 10948 10949 10950 10951 10952 10953 10954 10955 10956 10957 10958 10959 10959 10960 10960 10961 10961 10961 10961 10961 10960 10960 10959 10959 10960 10960 10959 10959 10959 10958 10957 10954 10950 10950 10951 10950 10949 10950 10950 10949 10947 10945 10943
10838 10841 10844 10847 10851 10854 10858 10861 10865 10868 10871 10873 10874 10877 10881 10884 10889 10893 10897 10902 10906 10908 10908 10911 10915 10917 10919 10920 10922 10925 10928 10929 10930 10932 10933 10934 10935 10936 10937 10939 10940 10940 10941 10943 10944 10945 10946 10947 10948 10949 10950 10951 10952 10953 10955 10955 10955 10956 10957 10957 10957 10958 10958 10958 10957 10957 10957 10956 10956 10956 10956 10955 10956 10956 10954 10952 10951 10949 10948 10948 10948 10947 10946 10945 10944 10942 10940 10939
10833 10836 10839 10842 10846 10849 10853 10857 10860 10863 10866 10867 10870 10874 10876 10881 10886 10890 10893 10898 10902 10903 10903 10907 10911 10913 10914 10916 10919 10921 10924 10925 10926 10928 10929 10930 10931 10932 10934 10935 10936 10937 10938 10940 10941 10942 10942 10943 10945 10946 10947 10948 10949 10951 10951 10951 10952 10953 10953 10954 10954 10954 10954 10954 10954 10954 10953 10953 10952 10952 10952 10951 10952 10953 10950 10947 10947 10948 10947 10946 10945 10944 10942 10939 10938 10937 10937 10936
10828 10831 10834 10837 10841 10844 10848 10852 10855 10858 10860 10863 10866 10869 10873 10879 10883 10885 10888 10892 10897 10897 10897 10902 10907 10907 10909 10913 10915 10917 10919 10920 10922 10924 10925 10926 10928 10929 10930 10932 10933 10934 10935 10936 10937 10937 10938 10940 10941 10942 10945 10945 10945 10947 10948 10948 10949 10949 10949 10950 10950 10950 10951 10951 10950 10950 10950 10950 10949 10948 10948 10947 10948 10949 10946 10943 10944 10945 10945 10943 10942 10941 10939 10937 10935 10935 10934 10933
10823 10826 10829 10832 10836 10839 10843 10846 10850 10853 10856 10859 10862 10866 10871 10876 10878 10879 10883 10888 10891 10891 10893 10899 10902 10903 10906 10908 10910 10912 10914 10916 10918 10920 10921 10922 10924 10925 10926 10928 10928 10930 10932 10932 10933 10934 10936 10937 10937 10940 10942 10941 10941 10943 10945 10945 10944 10945 10947 10946 10945 10948 10948 10947 10947 10947 10947 10947 10946 10946 10944 10943 10944 10945 10943 10940 10940 10941 10941 10940 10939 10938 10936 10935 10934 10934 10933 10931
10818 10821 10824 10828 10831 10834 10838 10842 10845 10848 10852 10855 10859 10863 10868 10871 10871 10874 10878 10882 10884 10886 10890 10895 10897 10899 10901 10903 10905 10908 10909 10911 10914 10915 10917 10918 10919 10921 10923 10923 10924 10927 10929 10928 10930 10932 10932 10933 10935 10938 10937 10937 10937 10939 10942 10940 10940 10943 10943 10940 10943 10945 10943 10942 10944 10944 10944 10944 10944 10942 10941 10940 10941 10941 10939 10937 10938 10938 10936 10935 10935 10934 10933 10931 10930 10930 10930 10928
10813 10817 10820 10823 10826 10830 10834 10837 10841 10844 10848 10851 10856 10861 10863 10863 10866 10870 10874 10878 10881 10884 10887 10890 10892 10894 10896 10898 10901 10903 10905 10907 10910 10911 10913 10914 10915 10917 10919 10919 10921 10924 10924 10924 10927 10929 10928 10929 10934 10934 10932 10934 10935 10936 10936 10935 10937 10940 10937 10937 10941 10939 10936 10939 10941 10940 10941 10941 10941 10939 10936 10935 10937 10938 10935 10933 10934 10934 10931 10930 10930 10928 10928 10927 10925 10924 10924 10923
10809 10812 10816 10819 10822 10826 10829 10833 10837 10841 10844 10848 10853 10856 10856 10857 10863 10867 10870 10875 10880 10882 10883 10885 10888 10890 10892 10894 10897 10898 10900 10903 10906 10907 10908 10909 10911 10913 10914 10915 10918 10919 10919 10921 10924 10926 10925 10926 10930 10929 10928 10931 10932 10931 10932 10932 10934 10935 10933 10937 10938 10932 10932 10937 10937 10936 10937 10937 10937 10935 10932 10930 10933 10934 10932 10930 10930 10928 10926 10926 10926 10923 10923 10923 10921 10919 10918 10918
10805 10808 10811 10815 10818 10822 10825 10829 10833 10837 10841 10845 10848 10849 10849 10855 10861 10864 10867 10872 10876 10876 10878 10882 10883 10885 10888 10890 10892 10894 10895 10899 10902 10903 10904 10906 10907 10909 10909 10912 10915 10914 10915 10918 10920 10922 10922 10923 10927 10925 10924 10929 10928 10926 10928 10928 10929 10931 10931 10933 10931 10927 10929 10933 10932 10932 10933 10933 10932 10931 10928 10927 10929 10929 10928 10927 10926 10925 10923 10921 10922 10921 10919 10918 10917 10915 10912 10911
10801 10804 10808 10811 10814 10817 10821 10825 10829 10833 10837 10840 10841 10842 10846 10853 10858 10860 10863 10868 10870 10872 10874 10876 10878 10881 10883 10884 10887 10891 10892 10895 10898 10898 10899 10901 10903 10905 10906 10909 10911 10910 10912 10915 10916 10918 10919 10919 10923 10922 10922 10924 10922 10921 10924 10924 10926 10928 10927 10925 10925 10925 10926 10927 10929 10929 10929 10928 10929 10927 10923 10924 10926 10924 10923 10923 10922 10922 10922 10918 10917 10918 10917 10915 10913 10911 10908 10906
10797 10801 10804 10806 10809 10813 10817 10821 10825 10828 10831 10834 10835 10838 10844 10850 10853 10855 10858 10861 10864 10866 10869 10871 10873 10877 10879 10880 10885 10888 10887 10889 10893 10893 10893 10896 10900 10902 10901 10904 10907 10906 10908 10911 10912 10914 10914 10916 10918 10918 10919 10919 10916 10919 10921 10920 10922 10924 10921 10919 10921 10923 10922 10923 10924 10924 10925 10924 10923 10923 10919 10920 10924 10920 10918 10920 10918 10918 10919 10916 10914 10913 10913 10911 10908 10907 10906 10904
10793 10797 10799 10801 10805 10809 10813 10816 10820 10823 10826 10829 10832 10836 10841 10846 10849 10852 10855 10857 10859 10862 10864 10867 10871 10874 10877 10879 10881 10883 10882 10885 10888 10888 10889 10893 10896 10895 10896 10900 10903 10903 10905 10907 10907 10909 10910 10912 10914 10915 10916 10914 10912 10917 10918 10915 10916 10919 10918 10916 10917 10918 10918 10919 10919 10919 10921 10920 10918 10918 10915 10915 10919 10917 10914 10914 10912 10912 10914 10914 10912 10910 10908 10906 10903 10902 10901 10900
10790 10792 10794 10797 10801 10804 10808 10812 10815 10819 10822 10825 10828 10832 10836 10841 10846 10849 10851 10852 10855 10859 10861 10865 10868 10870 10873 10874 10875 10876 10878 10881 10883 10884 10885 10889 10889 10890 10894 10897 10897 10898 10900 10900 10902 10906 10907 10909 10910 10911 10912 10910 10909 10912 10913 10910 10911 10915 10915 10912 10912 10913 10914 10915 10914 10914 10916 10915 10913 10914 10911 10911 10914 10913 10910 10908 10907 10907 10907 10907 10907 10905 10904 10902 10900 10899 10897 10895
10785 10787 10790 10794 10797 10800 10804 10807 10811 10814 10817 10820 10824 10828 10834 10840 10843 10842 10843 10846 10850 10855 10859 10862 10865 10865 10867 10869 10870 10871 10873 10875 10877 10879 10880 10882 10885 10888 10890 10891 10891 10893 10895 10895 10899 10904 10904 10903 10905 10906 10908 10908 10906 10907 10909 10908 10908 10911 10910 10908 10910 10909 10909 10911 10910 10910 10912 10910 10909 10909 10908 10908 10911 10909 10906 10905 10903 10901 10900 10900 10899 10899 10900 10898 10896 10895 10892 10890
10781 10783 10787 10790 10793 10796 10800 10803 10807 10811 10814 10818 10821 10826 10831 10833 10834 10834 10837 10843 10847 10851 10855 10858 10860 10860 10862 10865 10865 10867 10871 10871 10872 10875 10875 10877 10882 10884 10884 10884 10886 10890 10892 10893 10898 10899 10897 10898 10902 10903 10904 10905 10904 10902 10905 10905 10905 10906 10904 10904 10907 10906 10905 10906 10906 10906 10907 10906 10906 10905 10903 10905 10908 10905 10904 10904 10901 10898 10897 10896 10894 10894 10896 10895 10893 10891 10888 10885
10778 10780 10784 10786 10789 10792 10796 10799 10803 10806 10810 10814 10818 10821 10824 10826 10828 10831 10835 10839 10843 10848 10852 10853 10854 10856 10857 10860 10862 10865 10869 10868 10868 10871 10871 10874 10879 10879 10877 10879 10883 10887 10889 10890 10893 10892 10892 10896 10900 10899 10899 10901 10900 10899 10900 10902 10902 10901 10899 10900 10902 10903 10902 10902 10901 10902 10902 10902 10903 10902 10900 10901 10902 10901 10901 10901 10899 10897 10895 10893 10891 10890 10890 10890 10888 10887 10884 10881
10775 10778 10780 10782 10785 10788 10791 10795 10799 10802 10806 10810 10813 10816 10819 10822 10826 10829 10832 10836 10840 10844 10846 10847 10850 10853 10855 10859 10861 10863 10865 10864 10864 10866 10867 10870 10874 10874 10873 10876 10881 10884 10884 10885 10888 10889 10889 10893 10895 10894 10895 10896 10896 10895 10895 10897 10898 10897 10897 10897 10897 10899 10899 10897 10897 10897 10898 10899 10898 10897 10897 10896 10895 10896 10896 10896 10896 10894 10890 10888 10887 10885 10883 10882 10881 10879 10878 10876
10772 10773 10775 10778 10780 10784 10788 10791 10795 10799 10803 10806 10808 10811 10814 10817 10820 10823 10827 10832 10835 10839 10840 10843 10847 10849 10852 10857 10857 10858 10860 10858 10859 10862 10863 10865 10868 10868 10869 10873 10877 10879 10879 10882 10885 10886 10886 10889 10890 10891 10890 10890 10891 10892 10891 10893 10894 10893 10894 10894 10893 10894 10895 10895 10894 10892 10892 10895 10893 10892 10893 10891 10889 10891 10891 10891 10892 10888 10884 10883 10881 10878 10877 10876 10874 10873 10873 10871
10768 10769 10771 10774 10777 10779 10783 10786 10790 10795 10798 10800 10803 10807 10810 10813 10817 10820 10823 10827 10831 10834 10837 10840 10843 10845 10848 10851 10851 10851 10853 10853 10854 10857 10859 10861 10864 10863 10864 10869 10873 10874 10875 10878 10881 10882 10883 10884 10885 10887 10887 10885 10887 10888 10886 10888 10891 10890 10890 10890 10890 10890 10890 10890 10890 10888 10887 10889 10887 10886 10888 10886 10885 10885 10884 10885 10885 10883 10881 10880 10877 10874 10873 10871 10870 10869 10867 10865
10764 10765 10768 10771 10773 10775 10778 10781 10785 10788 10791 10794 10798 10801 10804 10809 10813 10815 10818 10823 10826 10830 10832 10835 10838 10840 10842 10845 10846 10848 10849 10849 10850 10853 10854 10857 10861 10859 10859 10865 10869 10869 10871 10874 10876 10879 10879 10879 10880 10883 10883 10883 10883 10883 10882 10884 10887 10887 10887 10886 10885 10886 10885 10885 10886 10884 10884 10883 10881 10881 10881 10881 10881 10882 10880 10878 10877 10877 10877 10876 10873 10872 10870 10867 10865 10864 10862 10860
10761 10762 10764 10766 10768 10772 10775 10778 10780 10782 10786 10790 10792 10795 10800 10804 10808 10811 10814 10818 10822 10824 10827 10830 10832 10834 10836 10839 10843 10845 10845 10844 10845 10848 10850 10853 10855 10854 10855 10860 10863 10865 10866 10868 10872 10875 10874 10874 10876 10878 10878 10879 10880 10879 10878 10879 10882 10884 10882 10880 10881 10881 10881 10881 10880 10880 10880 10878 10876 10875 10874 10875 10877 10878 10875 10873 10872 10871 10871 10870 10869 10868 10865 10862 10860 10857 10856 10855
10757 10759 10760 10762 10765 10768 10771 10773 10775 10779 10783 10786 10788 10793 10797 10800 10803 10807 10810 10814 10818 10821 10823 10825 10826 10829 10832 10835 10838 10840 10839 10840 10841 10843 10846 10847 10849 10850 10851 10855 10858 10860 10862 10863 10868 10871 10869 10868 10872 10874 10874 10875 10876 10875 10874 10875 10879 10880 10876 10875 10877 10877 10876 10875 10874 10875 10876 10874 10872 10871 10869 10870 10873 10873 10869 10867 10866 10865 10863 10862 10862 10862 10860 10857 10855 10852 10850 10848
10754 10755 10757 10760 10761 10763 10766 10769 10772 10775 10779 10783 10786 10790 10793 10796 10800 10803 10807 10811 10813 10816 10818 10819 10821 10824 10826 10829 10831 10832 10834 10836 10837 10839 10841 10842 10844 10846 10848 10850 10853 10856 10858 10859 10863 10866 10865 10864 10866 10870 10872 10871 10870 10870 10871 10872 10874 10873 10872 10873 10874 10872 10870 10869 10869 10872 10873 10870 10868 10867 10865 10865 10868 10868 10865 10862 10861 10858 10856 10855 10856 10856 10855 10851 10849 10846 10844 10843